Dewpoint
61 58 47 47 47 42 36 35 22 22 24 20 16 9 3 -1 2 -5 -5 -4 -2 18 26 19 29 23 33 41 51 52 55 54 57 53 57 62 61 64 63 66 67 67 67 67 71 72 73 74 74 74 74 74 74 73 73 73 73 72 71 71 71 70 70 70 69 69 69 69 69 70 71 71 71 70 70 71 72 71 71 71 71 71 71 71 71 71 71 71 70 70 70 70 70 70 69 69 70
48 47 50 45 40 35 32 32 26 19 14 12 9 5 1 -4 2 -3 -10 -1 21 23 22 28 31 33 34 40 50 50 55 59 60 61 62 63 64 64 64 65 65 65 66 67 67 69 71 73 74 74 74 73 73 73 73 72 72 72 71 71 71 70 70 69 69 69 69 69 69 69 71 71 71 70 70 71 72 71 71 71 71 71 71 71 71 71 70 70 70 70 70 69 69 69 70 70 70
47 50 34 33 29 31 29 26 21 16 10 7 4 -1 -5 -9 -8 -9 -6 11 14 18 22 28 37 28 30 34 40 50 51 60 61 61 62 64 64 66 65 65 65 65 66 66 67 69 71 73 74 74 73 73 73 73 73 72 72 72 71 71 70 70 69 69 69 69 69 69 69 69 69 71 71 71 71 71 71 71 71 72 71 71 71 70 71 71 70 71 71 70 70 70 70 70 69 70 69
53 50 42 27 24 27 26 17 17 15 10 3 -2 -5 -6 -11 -8 10 12 14 13 13 16 23 26 36 42 42 43 49 54 58 60 61 62 63 65 65 65 65 67 65 66 65 66 68 71 73 73 73 73 73 73 73 72 72 71 71 71 71 70 69 69 69 69 68 68 69 69 69 69 70 71 71 71 71 71 71 71 71 71 72 71 71 70 71 70 70 70 70 70 70 69 70 70 70 69
46 44 33 28 29 27 24 20 11 9 8 6 1 -1 -7 -6 1 6 11 11 12 13 12 29 34 40 49 46 46 49 49 54 61 63 63 65 66 66 66 66 66 65 65 64 67 70 71 73 73 73 73 72 72 72 72 71 71 71 70 70 70 69 69 69 69 68 68 68 68 68 69 69 70 70 71 71 71 71 71 71 71 71 71 71 70 71 70 70 70 70 70 70 70 70 70 70 69
30 32 30 23 27 25 22 20 20 14 7 3 -1 -1 -3 -6 -0 7 10 8 15 23 20 34 34 38 51 52 50 48 48 54 58 60 64 65 67 66 66 67 66 65 64 66 70 70 70 73 73 73 73 72 72 72 71 71 70 70 70 70 69 69 69 69 69 68 68 68 68 68 69 69 70 71 72 72 72 72 71 71 71 71 71 70 70 70 70 70 70 70 70 70 71 70 69 69 69
24 27 28 23 18 16 18 16 12 9 7 4 1 -0 0 2 3 10 8 6 15 20 25 30 36 46 48 50 53 50 51 53 56 62 64 67 67 66 66 66 66 65 65 68 68 69 70 72 72 72 72 72 71 71 71 70 70 70 70 69 69 69 69 69 69 69 68 68 68 68 69 69 70 71 72 72 72 71 71 71 71 71 70 70 70 70 70 70 71 71 70 70 70 70 69 68 68
27 25 24 23 18 13 9 8 5 4 3 2 -5 -7 -2 2 8 6 5 5 13 18 24 28 36 36 45 52 53 52 56 58 62 65 66 67 67 68 68 66 65 66 68 68 69 70 73 72 72 72 72 72 71 71 71 70 70 70 69 69 69 69 69 69 69 69 69 68 68 69 69 69 70 71 71 71 71 70 70 70 70 71 70 70 70 71 71 71 71 71 70 70 69 69 69 69 68
21 19 20 21 21 20 13 10 8 4 -3 -5 -2 10 30 8 9 8 6 4 16 21 18 27 33 34 51 54 53 56 62 63 65 66 65 67 68 68 68 66 65 69 69 70 70 70 70 72 72 72 71 71 71 70 70 70 69 69 70 69 69 70 70 69 69 69 69 69 69 69 69 69 70 71 71 71 70 70 70 70 70 71 70 70 70 70 70 70 71 70 70 70 70 69 69 69 68
16 17 16 19 20 19 14 10 7 6 3 -3 -3 5 6 4 4 4 2 1 15 23 23 26 29 36 52 52 52 56 62 63 64 66 67 68 68 68 70 69 70 69 69 68 68 68 69 72 72 72 71 71 71 70 70 70 70 70 70 69 69 70 70 70 70 70 69 69 69 69 69 70 71 71 70 70 70 69 69 69 70 70 70 69 69 70 70 70 70 70 70 70 70 70 69 68 68
14 14 12 11 17 13 6 1 1 3 4 -2 -4 2 1 -1 -1 3 4 3 9 15 21 24 22 41 56 58 57 59 64 64 64 66 68 67 69 70 67 69 69 69 68 67 67 68 69 69 72 72 71 71 71 71 71 70 70 70 70 70 70 69 69 70 71 70 69 70 70 69 70 71 71 71 70 70 69 69 69 69 70 70 70 69 69 70 70 71 70 70 70 70 70 69 68 68 68
13 12 13 8 8 10 10 4 -4 -4 -0 -2 -3 1 1 1 4 5 7 5 7 10 14 24 22 42 53 59 60 62 64 65 66 67 66 68 68 69 68 70 69 69 69 68 68 68 68 69 69 72 71 71 71 71 71 70 70 70 70 70 70 70 70 71 71 71 70 71 71 71 71 71 71 70 70 70 70 69 70 69 70 70 70 69 69 70 71 70 70 70 70 70 70 69 68 68 67
12 10 14 11 6 1 2 3 2 2 -5 -3 -2 -4 -0 2 6 6 6 4 10 11 13 19 24 38 54 61 63 65 64 66 67 67 68 68 70 68 70 69 70 71 72 69 67 67 67 67 66 68 70 71 71 71 71 70 70 71 71 70 71 70 71 71 71 71 71 71 71 71 71 71 71 70 70 70 70 70 70 69 70 70 70 69 69 70 70 70 71 71 70 70 70 69 68 67 66
11 9 10 13 12 8 2 -3 -5 -5 -1 -2 -4 7 9 5 6 5 3 4 8 10 17 22 53 55 59 60 62 62 63 65 67 69 67 69 69 68 69 69 69 69 70 70 66 67 66 65 66 66 68 69 70 71 71 71 71 71 71 71 71 70 71 71 71 72 72 71 71 71 71 71 71 70 70 70 69 69 71 70 70 69 70 69 70 70 70 70 70 70 70 69 69 68 68 67 66
7 8 9 10 10 11 8 -1 -6 -2 -1 -2 10 9 8 8 7 4 3 4 6 8 23 33 46 43 52 52 59 61 64 66 67 67 67 67 69 69 69 68 69 69 69 69 67 66 64 65 65 67 68 67 69 70 70 70 70 71 71 71 71 71 71 71 71 72 72 71 71 71 71 71 71 70 70 70 70 70 69 70 70 69 69 70 70 70 70 70 70 70 70 69 69 68 67 67 66
8 9 9 10 6 10 10 2 -3 -0 -4 -3 9 7 5 4 20 11 10 10 18 32 31 35 37 46 49 49 56 61 63 66 67 67 67 68 69 69 69 68 69 68 69 69 67 65 65 64 65 66 67 68 69 69 70 70 70 71 71 72 71 71 70 71 71 71 71 71 71 71 71 71 70 70 70 69 69 69 70 69 69 69 69 70 69 70 70 70 70 70 70 69 68 68 67 66 66
8 9 14 12 9 10 8 3 2 -1 -1 9 12 8 6 7 22 20 9 28 33 34 31 34 37 47 55 57 61 63 65 68 68 68 67 67 69 68 68 68 67 67 68 68 68 69 67 67 66 65 65 67 68 69 70 70 70 71 71 71 71 70 70 70 71 71 71 71 71 71 71 70 69 69 69 67 69 68 69 70 69 69 69 69 69 69 70 70 70 70 70 69 68 68 67 67 66
9 12 14 14 12 8 4 -1 -1 0 8 9 12 10 6 17 23 19 28 31 35 30 39 48 50 54 59 61 63 64 66 68 68 67 66 68 68 67 67 67 66 65 66 67 68 68 68 67 67 66 66 66 68 69 70 70 70 70 69 70 70 70 70 70 70 70 70 70 70 71 70 70 69 69 69 69 68 67 68 69 69 69 69 69 69 70 70 70 70 70 70 69 68 68 67 65 66
11 13 12 10 12 8 2 -0 2 9 4 12 11 10 8 17 22 25 31 33 34 31 41 47 46 53 60 63 63 64 66 68 69 68 67 67 66 67 66 67 66 65 65 66 67 67 68 67 66 66 67 68 68 69 69 70 69 69 68 69 69 70 69 69 69 68 68 68 68 69 70 70 69 68 69 68 68 67 68 69 69 69 69 69 70 70 70 70 70 70 70 69 69 68 67 63 62
12 14 10 9 9 6 4 3 7 14 14 13 13 12 16 28 27 29 29 33 37 36 39 45 46 53 58 61 63 64 66 67 68 68 67 66 66 67 67 66 66 66 66 66 67 68 67 67 69 71 69 69 69 68 69 69 69 69 68 68 69 69 69 69 68 67 68 67 68 69 70 70 69 69 68 68 68 67 68 69 69 69 69 69 70 70 70 70 70 70 70 69 69 67 63 63 59
11 11 11 8 6 4 4 4 7 14 15 13 11 12 8 29 24 26 24 34 35 36 38 41 48 52 56 60 62 65 66 66 67 67 67 67 67 68 67 67 66 66 66 67 67 67 69 70 69 70 70 70 69 69 69 68 70 70 68 68 69 68 69 69 69 69 68 68 68 70 70 72 71 71 68 68 67 67 67 67 68 68 68 68 70 68 69 68 69 69 69 69 67 64 62 64 60
10 9 9 9 5 2 4 6 7 10 15 14 11 8 7 29 21 23 26 33 36 33 37 42 52 53 52 58 62 65 65 64 66 66 65 66 67 67 68 67 68 68 68 68 68 68 69 69 69 70 70 70 71 70 69 70 70 70 70 71 73 72 72 70 70 69 69 68 69 71 70 70 69 69 69 68 67 67 66 66 66 66 66 65 68 67 67 69 68 67 66 66 65 64 64 64 63
10 10 8 7 7 7 9 8 4 9 15 15 9 9 11 22 18 19 25 37 47 44 45 48 48 54 54 54 59 64 64 65 65 63 63 64 67 68 67 68 67 68 69 67 67 69 68 69 69 70 70 70 70 70 70 70 70 71 72 71 70 70 71 70 69 69 70 69 70 69 69 69 68 68 68 69 67 66 65 65 65 65 64 63 64 66 65 68 67 66 65 64 64 64 63 61 63
11 9 10 7 6 7 11 5 6 11 13 13 11 13 11 11 11 16 25 31 45 45 46 49 50 51 52 58 61 61 61 62 65 64 66 67 67 67 68 68 68 67 68 67 67 68 68 68 69 69 69 70 69 69 70 71 70 70 70 70 70 71 70 68 69 69 69 70 69 69 70 69 69 69 68 67 68 66 65 65 64 64 63 63 62 66 64 65 66 66 65 63 62 62 59 64 61
10 10 9 8 7 9 11 9 10 13 12 11 12 11 11 9 10 15 26 30 43 45 47 50 51 52 53 59 61 60 61 62 64 66 67 66 69 69 68 67 67 67 67 67 67 68 68 67 68 68 68 68 69 70 68 69 70 71 69 70 70 70 70 70 69 69 69 70 69 69 70 69 69 70 68 68 68 67 67 65 63 64 64 63 62 66 65 64 64 66 65 63 62 62 64 63 60
10 9 9 8 9 10 12 9 10 12 10 11 12 11 8 7 7 20 25 30 38 43 46 45 48 49 52 57 58 60 63 65 66 66 67 67 69 68 68 67 67 67 67 67 67 68 67 68 67 68 68 67 69 68 69 69 70 70 70 69 69 69 69 69 69 69 69 69 69 69 70 69 69 69 67 69 69 68 67 67 67 64 64 63 61 65 66 65 65 66 66 64 60 65 62 64 62
10 8 8 7 6 9 8 6 8 11 10 11 11 9 6 6 11 17 24 28 36 38 41 46 47 46 48 56 56 62 62 65 66 67 66 67 67 67 67 67 67 67 68 67 67 67 67 68 68 68 68 69 68 69 69 69 69 69 69 69 69 69 69 70 70 69 69 68 69 70 69 69 69 69 69 69 70 68 68 67 67 66 65 63 60 62 64 64 64 65 65 66 67 67 67 64 61
7 6 6 6 5 6 9 7 6 9 10 11 10 8 6 6 8 12 22 29 33 39 40 41 43 47 48 54 58 61 64 66 65 67 66 65 64 66 67 67 67 67 68 67 67 68 69 68 69 68 69 69 69 69 69 68 68 69 68 69 68 70 69 69 68 69 69 69 69 68 69 70 69 70 69 69 68 70 68 69 69 68 65 65 61 61 63 64 64 63 64 66 70 67 66 64 64
4 8 11 8 6 4 6 5 6 9 9 10 10 8 5 7 3 9 22 28 29 38 37 38 41 46 51 52 54 54 61 64 64 64 65 64 65 66 67 68 67 67 68 68 67 68 68 68 68 68 69 68 67 68 67 68 69 68 69 68 69 69 69 69 69 68 69 69 69 69 69 68 69 69 69 70 70 69 69 68 69 68 67 66 67 64 63 67 65 67 67 69 69 67 65 66 60
4 5 11 10 7 2 2 4 5 5 8 10 9 6 5 6 5 6 20 25 27 38 36 35 45 47 52 56 56 56 61 64 62 63 64 64 65 66 67 67 67 67 67 68 69 68 68 68 68 68 68 68 67 68 68 68 68 69 68 69 69 69 70 69 68 68 69 69 69 69 69 68 69 70 69 69 69 69 68 69 68 67 68 67 67 69 66 64 66 65 66 67 67 65 65 65 64
2 4 7 8 7 3 -0 3 5 5 8 10 9 7 4 5 4 6 21 23 30 36 36 40 46 52 55 54 55 57 61 63 63 64 65 66 66 66 67 67 67 67 67 68 67 67 67 69 68 68 68 67 68 68 68 68 68 68 68 68 69 69 69 69 68 69 69 69 68 67 68 69 68 69 69 70 69 70 69 68 68 68 68 67 68 67 68 67 66 65 64 64 65 64 64 65 62
4 5 6 6 6 5 -0 4 6 5 9 10 8 8 5 4 3 18 23 24 30 33 36 48 50 56 56 57 56 56 60 63 65 65 65 65 66 65 65 65 66 65 67 68 67 68 67 68 69 68 68 68 69 68 68 68 67 69 69 70 69 69 69 68 69 69 69 70 69 69 69 70 69 69 69 69 70 69 68 68 69 69 68 67 67 66 68 67 66 66 65 64 64 62 62 61 63
4 5 10 5 4 4 1 2 6 7 8 9 8 3 5 3 6 22 25 26 26 33 37 49 46 52 56 56 58 60 63 64 62 64 65 65 65 65 65 65 66 67 67 67 67 67 68 68 68 68 68 68 69 69 69 68 69 69 69 68 68 69 68 70 69 69 69 69 69 69 69 69 68 69 69 69 69 68 68 67 69 69 67 68 67 68 67 66 66 65 67 65 64 63 60 59 62
5 4 7 5 2 1 0 2 5 7 7 7 8 5 4 2 24 24 26 24 22 29 39 49 46 47 53 53 58 58 58 59 59 62 63 64 65 65 65 66 67 66 66 67 68 67 67 68 68 68 68 68 69 69 69 69 69 68 69 69 68 68 69 69 69 68 68 69 69 68 68 68 69 68 69 69 69 69 68 68 67 68 69 68 68 67 66 65 65 66 65 65 63 62 60 60 61
9 10 9 4 3 -0 -1 0 4 5 6 7 8 6 6 10 24 24 24 22 21 29 35 49 48 51 56 56 53 53 56 57 59 61 63 64 64 65 65 65 66 67 66 67 68 67 67 67 68 68 68 68 68 68 68 68 68 69 69 66 66 68 69 69 69 68 68 68 68 67 67 68 69 68 68 69 69 68 67 67 67 68 69 68 67 66 66 65 64 65 65 65 65 64 61 61 60
5 5 4 2 3 -2 -2 1 3 5 6 6 7 5 6 18 14 16 20 20 22 27 40 48 48 49 51 50 49 50 56 57 60 61 63 63 63 64 65 65 66 67 67 67 68 67 66 67 67 67 68 67 67 68 68 67 66 68 66 67 66 67 68 67 68 69 69 68 68 68 68 68 67 68 68 68 68 68 67 67 68 67 66 67 67 66 67 65 64 64 65 64 64 64 63 62 63
6 4 4 -0 -1 -2 -4 -2 2 5 5 6 7 8 7 23 20 20 22 25 24 30 37 43 43 40 43 44 49 51 56 57 59 61 63 63 64 65 65 66 66 66 67 67 66 67 66 65 67 66 67 67 67 67 67 67 66 66 66 67 66 66 65 67 67 68 68 68 69 68 68 68 68 68 68 68 68 67 67 67 67 66 67 67 67 66 67 65 66 65 65 65 65 63 63 63 63
6 4 5 0 -3 -4 -5 -5 2 5 13 5 7 4 13 25 25 23 23 25 21 32 37 37 38 42 44 49 55 56 56 58 60 62 63 64 63 64 65 65 65 64 65 66 66 67 67 66 66 67 68 68 69 69 69 68 67 66 65 64 66 65 65 65 65 67 68 68 69 68 68 68 68 67 68 67 67 68 67 67 67 67 67 66 66 67 67 67 66 65 66 65 64 63 63 63 65
7 3 4 1 -4 -2 -4 1 4 5 4 6 3 10 21 25 25 25 26 25 34 38 37 38 40 42 53 56 57 57 59 60 61 63 64 63 63 64 64 65 64 65 65 65 65 66 66 66 67 67 66 67 68 67 67 67 68 68 68 68 67 66 67 67 66 67 68 68 68 68 68 68 67 68 67 66 67 67 67 67 66 67 66 65 66 66 67 66 67 66 65 64 63 63 62 66 65
10 6 6 4 -0 -2 -4 1 4 5 7 6 3 24 25 29 30 32 32 30 37 34 36 49 52 53 54 55 56 57 57 59 62 61 62 62 62 63 63 63 64 64 64 64 65 65 65 65 66 66 67 67 67 67 66 68 67 68 68 68 68 67 66 67 68 68 67 67 67 67 67 68 67 67 66 65 66 67 67 67 66 66 67 66 66 66 66 66 66 65 65 65 64 62 61 63 65
12 7 5 -1 0 -3 -2 1 3 6 5 7 2 25 31 32 30 28 30 37 39 40 40 49 53 55 55 57 59 59 58 61 61 60 61 61 61 61 62 63 63 63 63 63 64 64 65 65 65 66 66 66 67 66 68 68 68 67 67 67 67 67 66 66 66 66 66 67 67 67 67 67 67 67 67 67 66 67 67 67 67 67 67 67 66 66 66 66 66 66 65 65 65 63 62 64 63
10 10 8 -2 0 1 1 1 3 8 8 6 -9 30 32 31 31 30 34 36 38 46 47 45 51 54 55 56 57 59 59 62 60 60 60 59 60 61 61 62 62 62 63 63 64 64 64 65 65 65 66 67 66 66 67 66 68 68 68 66 65 65 65 66 65 65 66 66 66 67 67 67 67 67 66 66 66 66 66 67 67 67 67 67 67 67 66 67 66 66 65 65 64 64 63 64 62
11 9 10 7 2 0 -1 -1 3 8 7 5 22 22 28 32 30 33 36 35 41 43 45 45 48 50 53 56 58 58 59 60 59 59 59 59 60 60 61 61 62 63 63 64 65 65 65 65 65 65 66 67 66 66 67 68 67 67 67 65 66 65 64 65 68 69 68 69 69 68 67 68 66 66 67 66 67 66 66 67 67 67 66 67 67 66 66 66 66 66 66 66 65 64 64 63 62
7 9 11 11 2 -2 1 4 6 7 6 5 21 19 26 25 27 33 37 37 37 39 38 42 52 55 56 57 57 57 57 58 58 58 59 59 59 59 59 60 60 61 63 64 64 65 64 64 65 65 66 66 66 67 67 67 66 67 66 66 65 65 65 65 66 67 69 69 68 67 67 68 68 66 66 66 66 66 66 66 66 66 66 66 67 66 66 66 66 67 66 66 66 65 64 63 62
6 7 11 10 5 -3 -3 1 7 8 9 6 10 20 23 24 26 28 32 30 39 42 45 49 54 54 54 55 55 56 56 56 57 57 57 57 57 58 58 59 59 59 61 61 62 63 64 64 64 64 65 65 65 66 66 66 66 66 66 65 65 65 64 65 65 65 67 68 67 68 68 68 68 67 66 66 66 65 66 67 65 66 66 66 67 66 67 66 66 65 65 65 64 64 64 64 63
8 10 9 7 5 2 -2 6 6 10 12 12 10 15 15 21 26 27 31 33 37 45 50 52 53 54 54 54 54 55 55 55 56 56 56 56 56 57 58 58 58 59 60 60 60 61 61 61 61 62 62 62 63 64 64 65 65 65 65 65 64 64 65 66 66 65 66 68 66 67 67 67 67 68 66 65 65 65 65 65 66 66 66 66 67 66 66 66 66 65 65 65 65 65 66 65 65
8 10 -0 2 1 3 3 6 8 14 13 9 6 8 13 20 26 27 31 36 43 50 52 52 52 53 53 53 53 54 54 55 54 55 55 55 55 56 56 56 56 58 59 59 60 60 60 60 60 60 61 61 61 62 62 62 63 64 64 64 64 64 64 65 65 65 65 65 64 66 66 66 67 66 66 66 66 66 66 66 67 67 67 67 67 66 66 66 66 66 65 65 65 65 66 66 65
9 10 3 -0 4 5 10 10 12 15 13 10 9 11 6 11 25 30 34 40 45 50 51 50 51 51 51 52 52 52 53 53 54 54 53 54 54 54 55 55 55 56 57 57 58 59 59 59 59 58 59 60 60 60 61 61 61 62 62 63 63 64 64 64 64 64 65 64 64 64 67 66 67 66 67 66 66 66 66 66 67 66 66 66 66 66 66 66 66 66 65 65 65 65 66 65 65
10 11 6 5 5 17 7 6 14 11 12 12 9 11 14 13 29 33 32 47 49 51 50 50 50 50 51 51 52 52 52 52 52 52 52 53 53 54 54 54 55 55 55 56 56 58 58 58 57 57 58 59 59 59 60 60 60 61 61 62 62 63 64 64 64 64 64 64 65 65 64 63 63 64 66 65 65 65 65 66 66 66 66 66 66 66 66 66 67 66 66 65 65 65 65 64 65
8 8 7 5 5 8 13 7 14 13 11 9 9 12 14 16 45 44 40 45 50 50 51 50 50 50 50 51 51 51 51 51 51 52 52 52 52 53 53 54 54 54 54 56 56 57 57 56 57 57 57 58 58 58 59 59 60 60 61 61 62 61 62 63 63 63 64 64 65 65 65 64 63 63 63 65 66 65 65 66 66 66 66 65 66 66 65 65 66 66 65 64 65 65 65 64 64
2 3 3 9 7 7 12 6 12 13 12 12 9 10 18 38 42 47 45 44 50 50 50 50 50 50 50 51 51 50 50 50 50 50 50 51 52 52 53 53 54 54 54 56 56 55 56 56 56 56 56 56 57 57 58 57 58 58 59 60 61 60 60 61 62 63 64 65 65 64 64 64 64 64 64 64 65 66 66 65 66 66 66 66 66 65 66 66 66 66 65 65 65 66 64 64 63
2 3 3 7 10 10 4 10 9 12 10 15 16 31 41 44 48 48 48 48 49 49 49 49 49 49 49 49 49 49 49 50 50 50 50 50 51 51 52 53 53 53 54 55 54 56 56 56 56 55 55 56 56 56 56 57 58 58 59 59 59 59 60 61 61 63 63 64 65 64 63 64 64 64 64 64 64 64 65 66 65 65 65 66 65 65 65 65 65 65 65 65 65 65 65 65 64
5 2 5 6 8 3 18 17 24 28 21 11 38 41 45 47 49 48 48 47 47 48 48 48 48 48 49 49 49 48 49 49 49 49 49 50 50 51 50 51 52 53 54 54 54 55 55 56 55 54 54 54 55 55 56 56 57 57 58 58 58 59 59 60 61 63 64 64 64 65 64 63 64 64 65 65 64 64 64 64 65 66 66 66 64 65 66 65 65 64 64 64 64 65 65 65 65
4 4 3 4 6 6 17 11 16 16 14 23 37 38 40 40 35 49 47 46 47 47 47 47 48 48 48 48 48 48 48 48 48 49 49 49 49 49 50 50 50 51 53 53 53 55 56 56 55 54 54 53 54 54 55 56 56 57 57 57 58 59 59 59 60 62 63 64 63 63 64 64 63 64 64 65 65 64 64 64 65 65 65 64 65 66 65 64 64 64 64 64 65 65 64 65 65
3 2 5 8 14 11 15 17 14 13 15 15 37 38 38 37 41 45 45 46 46 46 47 47 48 48 47 47 47 48 48 48 48 48 48 48 48 49 49 49 49 50 52 53 53 53 54 55 56 54 53 53 54 54 55 55 56 56 56 57 57 58 58 58 59 60 62 63 63 63 62 63 64 64 63 64 65 65 64 64 64 64 64 64 64 64 64 64 64 64 64 65 65 65 64 64 64
3 2 1 6 11 14 13 15 13 14 13 15 33 33 35 35 42 44 45 46 46 46 46 47 47 47 47 47 47 47 47 47 47 47 47 47 48 48 48 49 49 50 50 52 53 53 52 53 53 54 53 52 53 54 55 55 56 56 56 56 57 56 56 57 57 58 59 61 61 62 62 63 63 63 63 63 63 63 64 63 65 64 64 64 64 64 64 64 64 64 64 64 65 64 64 64 64
3 6 7 5 18 10 7 18 7 16 14 13 26 28 31 37 44 44 44 45 46 46 46 46 47 47 47 47 47 47 47 47 47 47 47 47 47 48 47 49 49 49 51 53 53 52 52 52 53 52 52 52 53 55 55 55 56 56 56 56 56 57 57 56 57 57 58 58 59 60 61 62 63 63 63 64 63 62 62 63 62 63 63 64 64 63 62 63 64 64 64 64 64 64 64 64 64
4 6 8 5 6 5 6 11 7 9 11 16 16 23 39 44 48 45 45 44 46 46 46 46 46 46 47 47 47 47 47 47 47 46 46 46 46 46 48 48 48 48 49 50 51 52 51 51 50 50 51 50 52 51 53 54 54 55 55 55 56 56 56 56 56 56 56 56 56 58 59 60 62 63 63 62 62 63 64 64 62 64 64 64 64 63 63 64 64 63 63 63 63 63 62 63 63